map of DLA home
DLA - Airport
Location
City:  Douala, Littoral, Cameroon
Name:Douala International Airport
ICAO:FKKD
IATA:DLA

Details
Type:Airport (Aerodrome, Airfield)
Use:Public/Civil, Military, International (customs port of entry)
Latitude:400'22"N (4.006081)
Longitude:943'10"E (9.719481)
Datum:WGS 1984
Elevation:33 ft (10 m)
Variation:0.89W (WMM2015v2 magnetic declination)
0.13 annual change
Runways:1
Longest:9350 × 148 ft (2850 × 45 m), paved

Time
Time Zone:UTC+1
Local Time:

Weather
METAR:FKKD 041400Z VRB05KT 9999 SCT016 FEW020CB 32/25 Q1008 NOSIG
TAF:FKKD 041100Z 0412/0518 24007KT 7000 BKN015 FEW018CB
TEMPO 0500/0505 TS BKN013 FEW016CB
TEMPO 0504/0508 2000 BR

Related Locations
Nearby:
Farthest:CIS: 12310 mi / 19811 km
Kanton Island (Canton Island, Abariringa Island) [Canton Island Airport], P, KI

Find:

   beyond  
but within

Other Information
Maps:
NOTAMs:
Links:
Sources:

  
  • flag of Cameroon
  

Sectional Chart

Flight Planning
at skyvector.com

Satellite Image

Google Maps Satellite view

 

Copyright © 2004-2019 Karl L. Swartz. All rights reserved.
The Great Circle Mapper name and logo are trademarks of the Great Circle Mapper.
All other trademarks mentioned herein belong to their respective owners.
Please see credits for attibutions and further copyright information.

  Follow gcmap on Facebook Follow gcmap on Twitter GCmap on LinkedIn

hCard Microformat

Geo Microformat